UAL1822 KEWR-KEYW

Flight info

Callsign UAL1822
Flight time N/A
Altitude 40000
Route DCT ELVAE DCT NECCK DCT WHITE Q409 CRPLR DCT EARZZ Q131 WAALT Y289 BAHAA DCT HIBAC DCT EBAYY FNTSY1
Aircraft B737/M-SDE2E3FGHIRWXY/LB1

Departure

Time 2026-04-23 19:46
Airport Newark Liberty International Airport (KEWR)

Arrival

Time N/A
Airport Key West International Airport (KEYW)
Time Latitude Longitude Altitude Speed Heading
2026-04-23 19:22 40.68302 -74.18349 21 ft 0 kts
2026-04-23 19:35 40.68296 -74.18349 21 ft 4 kts
2026-04-23 19:36 40.68269 -74.18353 21 ft 4 kts
2026-04-23 19:36 40.68250 -74.18355 21 ft 4 kts 39°
2026-04-23 19:36 40.68242 -74.18380 21 ft 3 kts 95°
2026-04-23 19:36 40.68244 -74.18403 21 ft 0 kts 95°
2026-04-23 19:40 40.68244 -74.18399 21 ft 1 kts 95°
2026-04-23 19:40 40.68241 -74.18351 21 ft 10 kts 95°
2026-04-23 19:40 40.68233 -74.18236 21 ft 14 kts 95°
2026-04-23 19:40 40.68238 -74.18112 21 ft 13 kts 94°
2026-04-23 19:41 40.68231 -74.17992 24 ft 13 kts 96°
2026-04-23 19:41 40.68195 -74.17887 21 ft 13 kts 117°
2026-04-23 19:41 40.68157 -74.17785 21 ft 12 kts 116°
2026-04-23 19:41 40.68089 -74.17756 21 ft 12 kts 205°
2026-04-23 19:42 40.68016 -74.17803 22 ft 12 kts 206°
2026-04-23 19:42 40.67944 -74.17849 21 ft 11 kts 206°
2026-04-23 19:42 40.67874 -74.17893 22 ft 11 kts 206°
2026-04-23 19:42 40.67806 -74.17936 21 ft 11 kts 206°
2026-04-23 19:43 40.67740 -74.17978 21 ft 10 kts 206°
2026-04-23 19:43 40.67676 -74.18019 21 ft 10 kts 204°
2026-04-23 19:43 40.67612 -74.18050 21 ft 9 kts 173°
2026-04-23 19:43 40.67608 -74.18048 21 ft 0 kts 167°
2026-04-23 19:44 40.67587 -74.18028 21 ft 7 kts 133°
2026-04-23 19:44 40.67558 -74.17971 22 ft 8 kts 115°
2026-04-23 19:44 40.67570 -74.17922 24 ft 8 kts 12°
2026-04-23 19:45 40.67588 -74.17913 23 ft 0 kts 24°
2026-04-23 19:45 40.67625 -74.17891 22 ft 23 kts 25°
2026-04-23 19:45 40.67971 -74.17673 19 ft 86 kts 26°
2026-04-23 19:46 40.68675 -74.17227 22 ft 136 kts 25°
2026-04-23 19:46 40.69655 -74.16593 59 ft 173 kts 24°
2026-04-23 19:46 40.70750 -74.15885 575 ft 173 kts 20°
2026-04-23 19:46 40.71796 -74.15082 1134 ft 180 kts 42°
2026-04-23 19:47 40.72378 -74.14274 1532 ft 180 kts 41°
2026-04-23 19:47 40.73558 -74.12742 2327 ft 178 kts 39°
2026-04-23 19:47 40.74447 -74.11614 2864 ft 178 kts 41°
2026-04-23 19:47 40.75397 -74.10550 3264 ft 185 kts 18°
2026-04-23 19:48 40.76704 -74.10395 3500 ft 201 kts 340°
2026-04-23 19:48 40.77817 -74.11587 3732 ft 224 kts 298°
2026-04-23 19:48 40.78279 -74.13667 4114 ft 247 kts 284°
2026-04-23 19:48 40.78551 -74.15955 4853 ft 255 kts 278°
2026-04-23 19:49 40.78713 -74.18291 5700 ft 257 kts 275°
2026-04-23 19:49 40.78380 -74.20615 6523 ft 265 kts 248°
2026-04-23 19:49 40.77232 -74.22578 7198 ft 280 kts 223°
2026-04-23 19:49 40.75449 -74.23705 8014 ft 293 kts 194°
2026-04-23 19:50 40.74090 -74.23942 8599 ft 297 kts 189°
2026-04-23 19:50 40.72000 -74.24213 9394 ft 303 kts 189°
2026-04-23 19:50 40.69872 -74.24452 10125 ft 311 kts 189°
2026-04-23 19:50 40.67654 -74.24674 10511 ft 332 kts 189°
2026-04-23 19:51 40.65262 -74.24900 10825 ft 354 kts 188°
2026-04-23 19:51 40.62775 -74.25128 11438 ft 362 kts 189°
2026-04-23 19:51 40.60248 -74.25346 12197 ft 367 kts 189°
2026-04-23 19:51 40.57676 -74.25540 12933 ft 373 kts 189°
2026-04-23 19:52 40.55067 -74.25719 13745 ft 376 kts 189°
2026-04-23 19:52 40.52443 -74.25891 14560 ft 380 kts 189°
2026-04-23 19:52 40.49781 -74.26059 15256 ft 386 kts 189°
2026-04-23 19:52 40.47088 -74.26217 16059 ft 389 kts 189°
2026-04-23 19:53 40.44373 -74.26373 16820 ft 393 kts 188°
2026-04-23 19:53 40.41631 -74.26528 17554 ft 397 kts 189°
2026-04-23 19:53 40.38854 -74.26681 18243 ft 402 kts 189°
2026-04-23 19:53 40.36048 -74.26830 18992 ft 405 kts 188°
2026-04-23 19:54 40.33232 -74.26714 19652 ft 418 kts 175°
2026-04-23 19:54 40.30304 -74.26065 20288 ft 422 kts 180°
2026-04-23 19:54 40.27374 -74.25890 20917 ft 422 kts 185°
2026-04-23 19:54 40.24424 -74.25897 21510 ft 426 kts 186°
2026-04-23 19:55 40.21441 -74.25907 22104 ft 431 kts 185°
2026-04-23 19:55 40.18424 -74.25861 22730 ft 435 kts 184°
2026-04-23 19:55 40.15423 -74.25764 23293 ft 440 kts 184°
2026-04-23 19:55 40.12344 -74.25632 23835 ft 445 kts 183°
2026-04-23 19:56 40.09238 -74.25487 24378 ft 449 kts 183°
2026-04-23 19:56 40.06105 -74.25343 24884 ft 453 kts 183°
2026-04-23 19:56 40.02971 -74.25506 25359 ft 449 kts 195°
2026-04-23 19:56 39.99989 -74.26554 25895 ft 439 kts 210°
2026-04-23 19:57 39.97258 -74.28268 26358 ft 436 kts 217°
2026-04-23 19:57 39.94729 -74.30422 26811 ft 434 kts 224°
2026-04-23 19:57 39.92329 -74.32810 27236 ft 434 kts 226°
2026-04-23 19:57 39.89941 -74.35256 27610 ft 439 kts 226°
2026-04-23 19:58 39.87495 -74.37693 28014 ft 445 kts 225°
2026-04-23 19:58 39.84997 -74.40094 28450 ft 448 kts 224°
2026-04-23 19:58 39.82475 -74.42490 28832 ft 450 kts 225°
2026-04-23 19:58 39.80090 -74.45104 29163 ft 447 kts 232°
2026-04-23 19:59 39.77893 -74.47967 29553 ft 448 kts 234°
2026-04-23 19:59 39.75738 -74.50892 29949 ft 448 kts 234°
2026-04-23 19:59 39.73576 -74.53850 30252 ft 453 kts 235°
2026-04-23 19:59 39.71396 -74.56811 30551 ft 456 kts 234°
2026-04-23 20:00 39.69183 -74.59791 30801 ft 461 kts 234°
2026-04-23 20:00 39.66939 -74.62785 31091 ft 463 kts 234°
2026-04-23 20:00 39.64677 -74.65782 31390 ft 466 kts 234°
2026-04-23 20:00 39.62394 -74.68791 31665 ft 469 kts 234°
2026-04-23 20:01 39.60094 -74.71820 31993 ft 471 kts 234°
2026-04-23 20:01 39.57799 -74.74836 32421 ft 469 kts 234°
2026-04-23 20:01 39.55499 -74.77847 32730 ft 470 kts 234°
2026-04-23 20:01 39.53229 -74.80828 33001 ft 472 kts 234°
2026-04-23 20:02 39.50929 -74.83855 33338 ft 471 kts 234°
2026-04-23 20:02 39.48628 -74.86881 33669 ft 471 kts 234°
2026-04-23 20:02 39.46324 -74.89900 34022 ft 471 kts 234°
2026-04-23 20:02 39.44028 -74.92908 34335 ft 470 kts 234°
2026-04-23 20:03 39.41731 -74.95917 34578 ft 471 kts 234°
2026-04-23 20:03 39.39429 -74.98928 34899 ft 470 kts 234°
2026-04-23 20:03 39.37140 -75.01917 35307 ft 466 kts 234°
2026-04-23 20:03 39.34865 -75.04887 35644 ft 464 kts 233°
2026-04-23 20:04 39.32593 -75.07851 35929 ft 463 kts 233°
2026-04-23 20:04 39.30327 -75.10803 36165 ft 463 kts 233°
2026-04-23 20:04 39.28006 -75.13715 36388 ft 466 kts 231°
2026-04-23 20:04 39.25607 -75.16528 36689 ft 466 kts 230°
2026-04-23 20:05 39.23202 -75.19273 37253 ft 456 kts 229°
2026-04-23 20:05 39.20843 -75.21962 37673 ft 451 kts 230°
2026-04-23 20:05 39.18507 -75.24651 37870 ft 450 kts 230°
2026-04-23 20:06 39.13839 -75.30094 37979 ft 456 kts 230°
2026-04-23 20:06 39.09132 -75.35589 37974 ft 457 kts 230°
2026-04-23 20:07 39.04380 -75.41001 37959 ft 460 kts 223°
2026-04-23 20:07 39.01609 -75.43148 37982 ft 470 kts 211°
2026-04-23 20:07 38.98511 -75.44586 37956 ft 479 kts 198°
2026-04-23 20:08 38.91851 -75.45654 37978 ft 483 kts 189°
2026-04-23 20:08 38.85171 -75.46448 37961 ft 482 kts 190°
2026-04-23 20:09 38.78516 -75.47345 37979 ft 480 kts 191°
2026-04-23 20:09 38.71899 -75.48287 37973 ft 477 kts 191°
2026-04-23 20:10 38.66406 -75.49042 37992 ft 479 kts 190°
2026-04-23 20:10 38.58651 -75.50068 37988 ft 480 kts 190°